Reggio Calabria, Italy

9:47 AM CEST on May 27, 2017 (GMT +0200)
Reggio Calabria

Weather History for LICR - October, 2012

Change the Weather History Date:

Sunday, October 28, 2012

  Actual Average Record
Temperature  
Mean Temperature 71 °F -  
Max Temperature 78 °F 67 °F 78 °F (2006)
Min Temperature 64 °F 55 °F 57 °F (1996)
Cooling Degree Days 6    
Growing Degree Days 21 (Base 50)    
Moisture  
Dew Point 55 °F    
Average Humidity 59    
Maximum Humidity 73    
Minimum Humidity 50    
Precipitation  
Precipitation 0.00 in - - ()
Sea Level Pressure  
Sea Level Pressure 29.63 in    
Wind  
Wind Speed 8 mph ()    
Max Wind Speed 20 mph    
Max Gust Speed 28 mph    
Visibility 6.2 miles    
Events      
Averages and records for this station are not official NWS values.
T = Trace of Precipitation, MM = Missing Value Source: Averaged Metar Reports

Daily Weather History Graph

Daily Weather History Graph

Search for Another Location

Airport or City:

Trip Planner

Search our weather history database for the weather conditions in past years. The results will help you decide how hot, cold, wet, or windy it might be!

Date:

Astronomy

Oct. 28, 2012 Rise Set
Actual Time 6:19 AM CET 5:02 PM CET
Civil Twilight 5:52 AM CET 5:29 PM CET
Nautical Twilight 5:21 AM CET 6:00 PM CET
Astronomical Twilight 4:50 AM CET 6:31 PM CET
Moon 4:10 PM CET (10/28) 4:56 AM CET (10/28)
Length of Visible Light 11h 37m
Length of Day
10h 43m
Waxing Gibbous, 98% of the Moon is Illuminated
Oct 28
Waxing Gibbous
Oct 29
Full
Nov 7
Last Quarter
Nov 13
New
Nov 20
First Quarter

Hourly Weather History & Observations

Time (CET) Temp. Dew Point Humidity Pressure Visibility Wind Dir Wind Speed Gust Speed Precip Events Conditions
5:50 AM 66.2 °F 53.6 °F 64% 29.53 in 6.2 mi North 4.6 mph - N/A   Partly Cloudy
6:50 AM 66.2 °F 55.4 °F 68% 29.56 in 6.2 mi Variable 4.6 mph - N/A   Partly Cloudy
7:50 AM 71.6 °F 62.6 °F 73% 29.59 in 6.2 mi South 10.4 mph - N/A   Partly Cloudy
8:50 AM 73.4 °F 55.4 °F 53% 29.56 in - SE 6.9 mph - N/A   Clear
9:50 AM 77.0 °F 57.2 °F 50% 29.59 in - SSE 6.9 mph - N/A   Clear
10:50 AM 77.0 °F 57.2 °F 50% 29.59 in - South 6.9 mph - N/A   Clear
11:50 AM 77.0 °F 60.8 °F 57% 29.56 in - SSW 10.4 mph - N/A   Clear
12:50 PM 78.8 °F 60.8 °F 54% 29.56 in 6.2 mi South 5.8 mph - N/A   Scattered Clouds
1:01 PM 77.0 °F 60.8 °F 57% 29.56 in 6.2 mi South 8.1 mph - N/A   Scattered Clouds
1:50 PM 73.4 °F 59.0 °F 61% 29.56 in 6.2 mi NNW 15.0 mph 26.5 mph N/A   Scattered Clouds
2:50 PM 68.0 °F 59.0 °F 73% 29.62 in 6.2 mi North 12.7 mph - N/A   Mostly Cloudy
3:50 PM 68.0 °F 57.2 °F 68% 29.65 in 6.2 mi North 15.0 mph - N/A   Mostly Cloudy
4:50 PM 66.2 °F 55.4 °F 68% 29.68 in 6.2 mi North 18.4 mph - N/A   Mostly Cloudy
5:50 PM 66.2 °F 53.6 °F 64% 29.68 in 6.2 mi NNE 12.7 mph - N/A   Mostly Cloudy
6:50 PM 66.2 °F 50.0 °F 56% 29.71 in 6.2 mi North 16.1 mph 27.6 mph N/A   Mostly Cloudy
7:50 PM 66.2 °F 48.2 °F 52% 29.74 in 6.2 mi NNE 15.0 mph - N/A   Mostly Cloudy
8:50 PM 66.2 °F 48.2 °F 52% 29.71 in 6.2 mi North 19.6 mph - N/A   Mostly Cloudy
9:50 PM 64.4 °F 48.2 °F 56% 29.74 in 6.2 mi NNE 13.8 mph - N/A   Mostly Cloudy
10:50 PM 64.4 °F 46.4 °F 52% 29.77 in 6.2 mi North 11.5 mph - N/A   Scattered Clouds